When you browse on this site, cookies collect data to enhance your experience and personalize the content and advertising you see.
Visit our Privacy Policy to learn more. By continuing to use the site, you agree to this use of cookies and data.
  • In Spain
  • List of Countries
  • For 7 days
  • Water Temperature
  • Satellite Maps
  • Weather Map
  • Weather Widgets
  • user-avatar
    Login

    Hourly Weather Kirkuk

    Today, 22 January, Tuesday

    Time Temperature Precipitation Wind Pressure Humidity
    00:00 +7°C° 0 mm 1 mps 735 mmHg 45%
    01:00 +7°C° 0 mm 1 mps 734 mmHg 45%
    02:00 +7°C° 0 mm 1 mps 734 mmHg 46%
    03:00 +6°C° 0 mm 1 mps 734 mmHg 45%
    04:00 +6°C° 0 mm 1 mps 734 mmHg 45%
    05:00 +6°C° 0 mm 1 mps 734 mmHg 45%
    06:00 +6°C° 0 mm 1 mps 734 mmHg 45%
    07:00 +7°C° 0 mm 1 mps 734 mmHg 42%
    08:00 +8°C° 0 mm 1 mps 734 mmHg 39%
    09:00 +10°C° 0 mm 1 mps 735 mmHg 31%
    10:00 +11°C° 0 mm 1 mps 734 mmHg 29%
    11:00 +11°C° 0 mm 0 mps 734 mmHg 26%
    12:00 +12°C° 0 mm 0 mps 734 mmHg 24%
    13:00 +12°C° 0 mm 0 mps 734 mmHg 23%
    14:00 +14°C° 0 mm 1 mps 733 mmHg 22%
    15:00 +14°C° 0 mm 1 mps 733 mmHg 21%
    16:00 +13°C° 0 mm 1 mps 733 mmHg 25%
    17:00 +12°C° 0 mm 1 mps 733 mmHg 29%
    18:00 +11°C° 0 mm 1 mps 733 mmHg 33%
    19:00 +11°C° 0 mm 1 mps 733 mmHg 35%
    20:00 +10°C° 0 mm 1 mps 733 mmHg 37%
    21:00 +9°C° 0 mm 0 mps 733 mmHg 38%
    22:00 +10°C° 0 mm 1 mps 733 mmHg 38%
    23:00 +10°C° 0 mm 1 mps 733 mmHg 37%

    Tomorrow, 23 January, Wednesday

    Time Temperature Precipitation Wind Pressure Humidity
    00:00 +9°C° 0 mm 1 mps 734 mmHg 36%
    01:00 +9°C° 0 mm 1 mps 734 mmHg 36%
    02:00 +9°C° 0 mm 1 mps 734 mmHg 36%
    03:00 +9°C° 0 mm 1 mps 734 mmHg 36%
    04:00 +9°C° 0 mm 1 mps 734 mmHg 36%
    05:00 +9°C° 0 mm 1 mps 734 mmHg 36%
    06:00 +8°C° 0 mm 2 mps 734 mmHg 36%
    07:00 +9°C° 0 mm 2 mps 734 mmHg 35%
    08:00 +9°C° 0 mm 2 mps 734 mmHg 33%
    09:00 +10°C° 0 mm 2 mps 734 mmHg 32%
    10:00 +12°C° 0 mm 1 mps 734 mmHg 29%
    11:00 +14°C° 0 mm 1 mps 734 mmHg 26%
    12:00 +15°C° 0 mm 1 mps 734 mmHg 23%
    13:00 +15°C° 0 mm 1 mps 734 mmHg 23%
    14:00 +15°C° 0 mm 0 mps 734 mmHg 23%
    15:00 +15°C° 0 mm 0 mps 733 mmHg 22%
    16:00 +14°C° 0 mm 0 mps 733 mmHg 27%
    17:00 +13°C° 0 mm 0 mps 733 mmHg 32%
    18:00 +13°C° 0 mm 1 mps 733 mmHg 37%
    19:00 +12°C° 0 mm 1 mps 734 mmHg 37%
    20:00 +12°C° 0 mm 1 mps 734 mmHg 37%
    21:00 +12°C° 0 mm 2 mps 734 mmHg 37%
    22:00 +12°C° 0 mm 2 mps 734 mmHg 38%
    23:00 +10°C° 0 mm 2 mps 734 mmHg 40%

    Day after tomorrow, 24 January, Thursday

    Time Temperature Precipitation Wind Pressure Humidity
    00:00 +10°C° 0 mm 2 mps 734 mmHg 41%
    01:00 +10°C° 0 mm 2 mps 734 mmHg 43%
    02:00 +10°C° 0 mm 2 mps 734 mmHg 44%
    03:00 +9°C° 0 mm 2 mps 734 mmHg 45%
    04:00 +9°C° 0 mm 2 mps 734 mmHg 46%
    05:00 +9°C° 0 mm 2 mps 734 mmHg 47%
    06:00 +9°C° 0 mm 2 mps 734 mmHg 48%
    07:00 +10°C° 0 mm 2 mps 735 mmHg 46%
    08:00 +10°C° 0 mm 2 mps 735 mmHg 45%
    09:00 +12°C° 0 mm 2 mps 736 mmHg 43%
    10:00 +14°C° 0 mm 2 mps 736 mmHg 39%
    11:00 +14°C° 0 mm 3 mps 735 mmHg 35%
    12:00 +17°C° 0 mm 3 mps 735 mmHg 31%
    13:00 +17°C° 0 mm 3 mps 735 mmHg 30%
    14:00 +18°C° 0 mm 3 mps 734 mmHg 29%
    15:00 +18°C° 0 mm 4 mps 734 mmHg 28%
    16:00 +17°C° 0 mm 3 mps 734 mmHg 32%
    17:00 +16°C° 0 mm 3 mps 734 mmHg 35%
    18:00 +15°C° 0 mm 2 mps 734 mmHg 39%
    19:00 +14°C° 0 mm 2 mps 734 mmHg 40%
    20:00 +13°C° 0 mm 2 mps 734 mmHg 42%
    21:00 +13°C° 0 mm 2 mps 734 mmHg 43%
    22:00 +13°C° 0 mm 2 mps 734 mmHg 42%
    23:00 +13°C° 0 mm 2 mps 734 mmHg 42%

    25 January, Friday

    Time Temperature Precipitation Wind Pressure Humidity
    00:00 +12°C° 0 mm 3 mps 734 mmHg 41%
    01:00 +12°C° 0 mm 3 mps 734 mmHg 39%
    02:00 +12°C° 0 mm 4 mps 734 mmHg 38%
    03:00 +12°C° 0 mm 4 mps 733 mmHg 37%
    04:00 +12°C° 0 mm 3 mps 733 mmHg 37%
    05:00 +12°C° 0 mm 3 mps 733 mmHg 37%
    06:00 +12°C° 0 mm 3 mps 732 mmHg 38%
    07:00 +12°C° 0 mm 3 mps 732 mmHg 37%
    08:00 +13°C° 0 mm 3 mps 733 mmHg 36%
    09:00 +13°C° 0 mm 4 mps 733 mmHg 35%
    10:00 +15°C° 0 mm 5 mps 733 mmHg 32%
    11:00 +16°C° 0 mm 7 mps 733 mmHg 29%
    12:00 +18°C° 0 mm 8 mps 733 mmHg 27%
    13:00 +18°C° 0 mm 8 mps 732 mmHg 27%
    14:00 +18°C° 0 mm 7 mps 732 mmHg 27%
    15:00 +20°C° 0 mm 7 mps 731 mmHg 28%
    16:00 +19°C° 0 mm 5 mps 731 mmHg 32%
    17:00 +17°C° 0 mm 4 mps 731 mmHg 37%
    18:00 +16°C° 0 mm 3 mps 732 mmHg 42%
    19:00 +16°C° 0 mm 3 mps 732 mmHg 44%
    20:00 +14°C° 0 mm 3 mps 732 mmHg 46%
    21:00 +14°C° 0 mm 3 mps 733 mmHg 47%
    22:00 +13°C° 0 mm 3 mps 733 mmHg 48%
    23:00 +13°C° 0 mm 3 mps 733 mmHg 49%

    26 January, Saturday

    Time Temperature Precipitation Wind Pressure Humidity
    00:00 +13°C° 0 mm 3 mps 733 mmHg 50%
    01:00 +12°C° 0 mm 3 mps 732 mmHg 49%
    02:00 +12°C° 0 mm 3 mps 732 mmHg 49%
    03:00 +12°C° 0 mm 3 mps 732 mmHg 48%
    04:00 +12°C° 0 mm 3 mps 732 mmHg 48%
    05:00 +12°C° 0 mm 3 mps 732 mmHg 48%
    06:00 +12°C° 0 mm 3 mps 732 mmHg 48%
    07:00 +13°C° 0 mm 3 mps 732 mmHg 47%
    08:00 +14°C° 0 mm 3 mps 733 mmHg 46%
    09:00 +14°C° 0 mm 3 mps 733 mmHg 46%
    10:00 +17°C° 0 mm 4 mps 733 mmHg 43%
    11:00 +17°C° 0 mm 5 mps 733 mmHg 41%
    12:00 +20°C° 0 mm 6 mps 733 mmHg 38%
    13:00 +19°C° 0 mm 6 mps 732 mmHg 40%
    14:00 +19°C° 0 mm 5 mps 731 mmHg 42%
    15:00 +19°C° 0 mm 4 mps 731 mmHg 43%
    16:00 +18°C° 0 mm 4 mps 731 mmHg 44%
    17:00 +18°C° 0 mm 4 mps 730 mmHg 45%
    18:00 +17°C° 0 mm 4 mps 730 mmHg 45%
    19:00 +17°C° 0.1 mm 4 mps 730 mmHg 48%
    20:00 +17°C° 0.1 mm 4 mps 730 mmHg 51%
    21:00 +15°C° 0.1 mm 4 mps 730 mmHg 53%
    22:00 +15°C° 0.4 mm 5 mps 730 mmHg 55%
    23:00 +15°C° 0.4 mm 5 mps 730 mmHg 57%

    27 January, Sunday

    Time Temperature Precipitation Wind Pressure Humidity
    00:00 +15°C° 0.4 mm 5 mps 730 mmHg 59%
    01:00 +14°C° 0 mm 5 mps 729 mmHg 61%
    02:00 +14°C° 0 mm 5 mps 729 mmHg 63%
    03:00 +14°C° 0 mm 5 mps 729 mmHg 65%
    04:00 +14°C° 0.1 mm 4 mps 729 mmHg 67%
    05:00 +13°C° 0.1 mm 4 mps 729 mmHg 69%
    06:00 +13°C° 0.1 mm 4 mps 729 mmHg 71%
    07:00 +14°C° 0.3 mm 4 mps 730 mmHg 72%
    08:00 +14°C° 0.3 mm 4 mps 730 mmHg 72%
    09:00 +16°C° 0.3 mm 3 mps 731 mmHg 72%
    10:00 +17°C° 0.1 mm 4 mps 730 mmHg 68%
    11:00 +17°C° 0.1 mm 6 mps 730 mmHg 64%
    12:00 +18°C° 0.1 mm 7 mps 730 mmHg 60%
    13:00 +18°C° 0.1 mm 7 mps 730 mmHg 59%
    14:00 +18°C° 0.1 mm 7 mps 729 mmHg 59%
    15:00 +20°C° 0.1 mm 7 mps 729 mmHg 58%
    16:00 +18°C° 0.2 mm 7 mps 729 mmHg 60%
    17:00 +18°C° 0.2 mm 7 mps 729 mmHg 63%
    18:00 +17°C° 0.2 mm 7 mps 729 mmHg 65%
    19:00 +16°C° 0.3 mm 7 mps 729 mmHg 69%
    20:00 +16°C° 0.3 mm 7 mps 729 mmHg 74%
    21:00 +15°C° 0.3 mm 8 mps 730 mmHg 78%
    22:00 +15°C° 1.1 mm 7 mps 730 mmHg 79%
    23:00 +15°C° 1.1 mm 7 mps 730 mmHg 80%
    Show more